RH
61 62 62 61 61 62 64 65 66 67 68 71 72 73 72 72 74 73 71 69 67 68 67 67 67 66 66 67 69 71 73 77 79 81 82 82 82 81 81 80 79 77 76 74 72 70 66 62 56 50 45 40 36 33 32 31 31 31 31 30 30 29 28 28 28 27 27 26 26 25 25 25 24 24 24 24 24 23 23 23 22 22 22 22 22 22
69 71 72 72 74 75 77 77 77 77 78 79 80 81 81 81 82 81 81 77 73 73 71 70 69 67 66 67 68 68 71 75 79 83 86 87 86 85 82 79 74 70 65 59 54 49 44 40 36 34 32 31 31 31 31 31 31 31 31 31 31 31 31 31 30 30 30 30 30 30 29 29 28 28 28 28 28 27 26 26 25 25 25 24 24 24
84 84 86 87 88 87 87 85 83 80 80 80 79 79 80 80 82 83 84 81 77 77 77 75 74 73 72 74 73 72 73 74 74 75 75 73 70 64 59 54 49 45 42 38 35 33 33 32 32 33 33 33 33 33 34 34 34 34 34 34 35 35 35 35 35 35 34 34 33 33 33 32 32 31 31 31 31 31 30 30 29 28 28 27 26 26
84 83 85 86 87 86 84 84 82 80 79 80 79 78 79 77 77 81 81 79 75 74 73 68 65 64 63 63 62 59 58 55 52 50 48 45 42 38 35 33 33 32 31 31 32 32 33 33 34 34 34 35 35 35 35 35 35 35 35 35 35 35 35 34 33 33 33 32 31 31 31 30 30 30 29 30 30 30 30 29 29 28 27 27 26 26
74 72 72 72 73 73 72 72 71 69 67 67 67 65 65 62 61 61 61 59 56 54 52 47 44 43 42 41 40 38 37 36 35 34 33 32 30 29 29 29 29 29 29 28 28 29 29 29 29 29 29 29 29 29 29 29 29 28 28 28 28 27 27 27 26 26 25 25 25 24 24 24 24 23 23 23 23 24 24 24 24 24 23 23 23 23
54 52 50 48 48 47 47 46 44 44 42 41 40 40 39 39 38 37 37 36 35 35 34 32 31 30 30 30 30 29 29 28 28 27 27 27 26 26 26 26 26 25 25 25 25 25 25 25 25 25 25 25 25 25 25 25 25 24 24 24 24 23 23 23 23 22 22 22 21 21 21 21 20 20 20 19 19 19 19 19 19 19 19 19 19 19
32 31 30 30 29 29 29 29 29 29 29 29 29 29 29 29 30 30 30 30 30 30 29 29 28 27 27 29 30 30 30 30 29 29 29 28 28 28 28 29 29 29 29 29 29 29 29 29 29 29 29 29 29 29 29 29 28 28 28 27 27 27 27 26 26 26 26 25 25 24 24 23 23 22 22 21 21 20 20 20 19 19 18 18 18 17
26 26 27 27 27 28 28 28 28 29 30 30 30 31 31 31 32 32 32 33 33 33 33 32 31 30 30 31 32 32 33 33 33 33 33 32 31 31 31 31 32 32 32 32 32 32 32 32 32 33 33 33 33 33 33 33 33 33 33 33 33 32 32 32 32 31 31 31 30 30 29 29 28 28 28 27 26 25 24 24 23 22 22 21 20 20
27 28 28 28 29 29 29 29 30 30 31 31 31 32 33 33 34 34 34 34 34 34 34 33 32 31 31 30 30 30 30 31 31 32 32 32 32 31 31 31 30 30 30 30 30 30 30 31 31 31 32 32 32 32 32 32 33 33 34 34 34 34 34 34 35 35 35 35 35 35 34 34 34 33 33 33 32 31 31 30 29 29 28 27 26 25
28 28 28 28 28 28 28 29 29 29 30 30 30 31 31 32 32 33 33 33 32 32 32 31 30 30 29 28 28 27 26 27 27 27 28 27 28 27 27 27 27 27 27 27 27 27 27 27 27 27 27 28 28 28 29 29 29 29 29 30 31 31 31 32 32 33 33 33 34 34 35 34 35 35 35 35 34 34 34 34 34 33 33 32 31 30
26 26 26 26 27 27 27 28 28 29 29 29 29 29 29 30 30 30 31 31 31 31 30 30 28 27 26 25 24 23 22 22 21 21 21 21 21 21 20 20 20 20 20 20 20 20 20 20 20 20 20 20 20 21 22 22 22 22 22 23 24 25 25 26 27 27 28 29 29 30 30 31 32 32 33 33 33 33 33 34 33 34 34 33 33 32
26 26 25 25 26 26 26 26 27 27 27 28 28 28 28 28 28 28 28 27 27 27 26 25 24 23 22 20 19 18 17 17 16 15 15 14 14 14 14 14 14 14 14 14 13 13 14 13 13 13 13 14 14 14 14 14 15 14 14 15 15 16 17 17 18 19 19 20 20 21 22 23 24 25 26 27 27 27 28 28 29 29 30 30 30 30
27 27 27 27 26 26 26 26 26 26 26 26 26 27 27 27 27 26 26 26 26 25 24 23 22 22 21 19 18 17 17 16 15 14 13 13 13 13 12 12 12 12 11 11 11 11 11 10 10 10 11 11 11 11 11 12 12 12 12 11 11 12 12 12 12 12 13 13 13 14 14 15 15 16 17 17 18 18 18 19 20 21 21 22 22 23
29 29 29 28 27 27 27 26 26 26 26 27 28 29 30 30 30 30 31 32 32 31 30 28 26 26 25 24 22 21 19 18 17 16 15 14 13 13 12 12 12 11 11 10 10 10 9 9 9 8 9 9 9 9 9 9 10 10 10 10 10 10 10 11 11 10 11 11 11 11 11 11 12 12 12 12 13 13 13 13 13 14 14 14 15 15
28 27 27 28 28 29 29 29 30 30 30 31 32 33 34 35 35 33 33 33 33 33 32 30 28 27 26 24 22 21 19 18 16 14 13 12 11 10 10 9 9 8 8 8 8 8 8 8 8 7 7 7 7 7 7 7 7 7 8 8 8 8 8 9 9 9 9 9 9 9 10 10 10 10 10 10 11 11 11 11 11 11 11 11 12 12
27 27 28 28 28 29 30 30 30 30 30 30 30 31 31 32 31 31 29 28 29 30 31 30 27 27 28 26 23 22 20 19 17 15 14 12 11 10 9 8 8 7 6 6 6 6 6 6 6 7 7 7 7 7 7 7 7 7 7 7 7 7 7 7 8 8 8 8 8 8 8 9 8 9 9 9 9 9 9 9 9 9 9 10 10 10
29 29 30 30 31 31 31 30 30 32 32 31 30 30 30 31 32 34 34 33 33 35 39 38 31 31 34 34 30 27 25 23 21 18 16 13 12 10 9 8 7 7 6 6 5 5 5 6 6 6 6 7 7 7 7 7 7 7 7 7 7 7 7 7 8 8 8 8 8 8 8 8 8 8 8 8 8 8 8 8 8 8 8 8 8 8
33 33 33 33 34 35 35 35 35 37 38 37 36 36 36 36 37 38 39 41 42 43 47 47 37 33 36 36 32 28 25 22 20 17 15 13 12 10 9 9 8 8 7 6 6 6 6 5 6 6 6 6 6 6 7 7 7 7 7 7 7 8 8 8 8 8 8 8 8 9 8 8 8 8 8 8 8 8 8 8 8 8 8 8 8 8
36 36 37 35 35 36 38 38 36 36 38 38 37 38 41 42 42 42 42 42 42 41 44 43 35 31 31 29 25 21 19 17 15 15 13 13 12 11 10 10 9 9 8 8 8 7 7 7 7 7 6 6 6 6 6 6 6 6 7 7 7 8 8 8 9 9 9 9 9 9 9 9 9 9 9 9 9 9 8 8 8 8 8 8 8 8
38 37 38 38 37 36 35 35 33 32 35 38 36 34 37 39 40 41 39 36 34 32 32 32 28 23 22 20 18 16 15 14 14 14 13 13 12 11 10 10 9 9 8 8 8 7 7 7 7 7 7 7 7 7 7 7 7 7 7 8 8 8 8 8 9 9 9 9 9 8 8 8 8 8 8 8 8 8 8 8 8 8 8 8 8 8
37 37 36 36 36 34 33 34 34 32 32 36 38 34 32 31 30 31 31 29 26 22 21 21 19 16 16 15 14 14 14 14 14 14 14 14 12 11 10 9 9 8 7 7 7 7 7 6 7 7 6 7 7 7 7 7 7 8 8 9 9 9 9 9 9 9 9 9 9 9 9 8 8 8 8 8 7 7 7 7 7 7 7 7 7 7
38 38 38 37 37 38 39 38 37 36 32 30 31 29 26 25 24 25 27 26 22 17 16 16 14 13 15 16 15 15 16 16 16 15 14 13 12 11 10 9 9 9 9 9 8 8 8 7 7 7 7 7 7 7 8 8 8 8 9 9 9 10 10 10 10 9 9 9 9 9 9 8 8 8 8 8 7 7 7 7 7 6 6 6 6 6
42 42 42 42 41 40 41 39 37 36 32 26 23 21 20 19 19 19 21 23 20 16 15 16 15 14 15 16 17 17 17 17 17 16 14 13 13 12 11 11 11 10 10 10 9 8 8 8 8 8 8 8 8 8 8 9 9 10 10 10 10 10 10 10 10 9 9 9 9 9 8 8 8 8 7 7 7 7 7 6 6 6 6 6 6 6
46 47 46 46 45 42 41 41 37 34 32 26 21 17 15 14 14 15 17 19 18 15 15 16 17 16 16 18 18 19 19 18 18 17 15 15 14 13 13 11 10 10 9 9 8 8 8 8 8 8 8 8 8 9 9 9 10 10 10 11 10 11 10 10 10 10 9 9 9 9 8 8 7 7 7 7 6 6 6 6 6 6 6 6 5 5
46 48 49 48 49 47 45 45 41 36 33 29 22 17 14 13 13 15 17 17 15 15 15 16 19 18 18 21 22 22 21 20 19 18 17 17 16 14 13 11 10 9 9 8 8 8 8 8 8 8 8 9 9 9 10 10 11 11 11 11 11 11 10 10 10 10 9 9 8 8 8 7 7 6 6 6 6 6 5 5 5 5 5 5 5 5
49 50 52 52 52 51 49 48 46 40 36 32 26 21 17 15 15 17 21 20 18 20 20 19 22 25 25 26 26 25 25 24 23 22 20 20 18 16 14 12 11 9 9 9 8 8 8 8 8 8 8 9 9 10 11 11 11 12 11 11 11 10 10 10 9 9 8 8 7 7 7 6 6 6 6 5 5 5 5 5 5 5 5 5 5 5
53 53 55 56 56 55 54 53 53 50 45 40 36 30 23 19 17 19 24 26 24 26 27 25 26 29 31 31 29 29 28 27 27 25 23 23 22 20 18 16 13 11 10 10 9 8 8 8 8 9 9 9 10 10 11 11 11 11 10 10 10 9 9 8 8 8 7 7 6 6 6 6 5 5 5 5 5 5 5 5 5 5 5 5 5 5
58 58 59 60 61 60 60 60 60 59 57 53 49 43 33 25 20 20 26 30 29 30 31 31 30 30 33 33 32 31 30 29 29 27 25 26 25 24 23 20 17 14 12 11 10 9 9 8 9 9 9 9 10 10 10 10 10 10 10 10 9 8 8 7 7 7 6 6 6 6 6 5 5 5 5 5 5 5 5 5 5 5 5 5 5 5
61 63 62 63 64 64 64 65 66 66 66 65 62 56 46 33 23 21 26 29 30 31 31 33 34 33 33 34 33 32 31 30 31 30 27 27 27 26 25 23 20 17 13 12 10 9 9 9 9 9 10 10 10 11 11 11 11 11 10 9 9 8 7 7 6 6 6 6 6 6 6 6 6 6 6 6 6 6 6 5 5 5 5 5 5 5
63 65 65 64 65 66 66 67 70 71 70 71 71 67 61 48 32 23 25 27 29 32 34 35 36 35 34 34 33 32 32 31 32 32 30 28 28 26 25 24 22 19 16 13 12 10 10 9 9 10 10 11 11 11 11 11 11 11 10 9 8 7 7 7 6 6 6 6 6 6 6 6 6 6 6 6 5 5 5 5 5 5 5 5 4 4
63 65 67 66 65 66 67 67 69 72 72 72 74 75 75 69 49 28 23 26 27 31 34 34 35 35 34 34 34 32 32 32 33 34 32 29 28 26 26 26 24 22 19 15 13 11 10 10 10 11 11 11 12 12 12 12 11 11 10 9 8 7 7 7 7 7 7 7 6 6 6 6 6 5 5 5 5 5 5 5 5 5 4 4 4 4
64 66 69 71 69 67 68 67 67 69 72 72 74 77 80 83 71 44 29 29 27 28 32 33 33 34 33 33 34 34 33 32 34 35 33 31 30 29 29 29 27 25 21 17 14 12 11 11 11 11 12 12 12 12 12 12 11 11 10 9 8 8 8 8 8 7 7 7 7 6 6 5 5 5 5 5 5 4 5 4 4 4 4 4 4 4
64 66 69 74 74 71 71 71 69 68 71 73 74 75 78 85 88 69 45 35 31 27 28 31 32 33 33 33 35 37 36 34 35 37 35 34 34 33 32 31 29 27 23 20 16 13 12 12 11 12 12 12 13 13 12 12 12 10 10 9 8 8 8 8 9 8 8 8 7 6 6 5 5 5 5 5 5 5 4 4 4 4 4 4 4 4
64 66 68 72 77 77 75 75 74 70 71 73 72 73 75 81 93 90 65 46 39 33 29 30 32 32 34 35 36 40 41 38 37 39 38 36 35 35 34 33 31 29 27 24 19 15 12 12 11 11 12 12 13 13 13 12 12 10 10 9 9 9 9 9 9 9 8 7 7 6 6 5 5 5 5 5 5 5 4 4 4 4 4 4 4 4
63 66 68 70 76 80 78 77 78 75 73 72 72 73 74 76 88 96 82 60 49 42 34 33 33 33 34 36 37 40 42 40 38 40 40 40 39 37 36 35 34 32 31 26 20 15 13 12 12 11 12 13 13 13 13 12 11 10 9 9 9 9 10 10 9 8 7 6 6 6 5 5 5 5 5 5 5 5 5 4 4 4 4 4 4 4
63 65 69 70 74 79 80 78 79 78 75 75 75 75 75 74 80 92 91 75 61 50 40 36 35 35 35 36 37 38 41 42 41 42 43 43 42 41 39 38 36 33 31 28 23 18 14 12 12 12 12 13 13 13 13 12 11 11 10 9 9 10 10 10 9 8 7 6 6 6 5 5 5 5 5 5 5 5 5 5 4 4 4 4 4 4
66 65 68 71 72 77 81 79 78 79 79 78 77 76 76 74 76 84 90 85 72 57 44 37 36 36 36 36 37 38 41 44 44 44 45 45 43 43 41 40 38 35 33 31 26 20 16 13 12 12 12 13 13 13 13 12 11 11 10 9 9 10 9 9 8 7 6 6 5 5 5 5 5 5 5 5 5 5 5 5 4 4 4 4 4 4
72 67 68 71 71 74 79 79 76 77 78 78 76 75 74 74 74 77 83 86 79 66 51 41 37 37 37 37 38 39 42 45 46 45 45 44 43 42 41 40 39 36 34 32 27 22 17 14 12 11 12 13 13 13 13 12 11 10 10 9 9 9 9 8 8 7 6 6 5 5 5 5 5 5 5 5 5 5 5 5 5 4 4 4 4 4
76 70 69 72 72 73 79 82 80 76 76 78 77 74 74 74 72 72 77 82 82 75 60 46 38 37 38 39 40 41 41 43 44 44 44 43 42 41 41 40 38 36 34 32 29 24 19 15 12 12 12 13 14 14 13 12 12 11 10 10 9 10 9 8 7 6 6 6 5 5 5 5 5 5 5 5 5 5 5 5 5 5 5 4 4 4
80 74 71 73 75 75 78 83 85 82 79 78 78 76 74 75 73 72 75 79 82 80 69 52 41 38 39 39 41 42 41 41 42 44 44 43 41 40 40 39 37 35 34 33 31 27 22 17 13 12 12 13 14 14 14 13 12 11 11 10 10 9 9 8 7 6 6 6 5 6 6 5 5 5 5 5 5 5 5 5 5 5 5 5 5 4
84 80 75 75 78 79 79 81 85 88 85 81 80 80 76 75 75 76 77 78 81 82 77 62 47 40 40 41 41 42 42 42 42 45 45 44 42 40 39 39 38 36 36 35 33 30 25 20 15 12 13 14 14 15 14 14 13 12 11 10 10 9 8 8 7 6 6 6 6 6 6 5 5 5 5 6 6 5 5 5 5 5 5 5 5 4
87 85 79 78 80 81 81 80 81 86 88 84 82 82 79 77 77 77 77 79 81 84 84 75 58 45 41 42 41 41 43 42 43 46 48 46 44 42 41 40 39 38 38 37 35 32 28 23 17 13 13 14 15 15 15 14 13 12 11 10 10 9 8 7 7 6 6 6 6 5 5 5 5 5 5 6 6 6 5 5 5 5 5 5 5 4
88 86 82 81 82 81 82 82 79 79 85 85 83 82 80 78 78 76 76 80 83 85 88 86 73 54 42 42 42 41 43 43 42 45 49 49 47 44 42 41 40 39 39 38 37 34 31 25 19 14 13 13 15 15 15 15 14 12 11 11 10 9 8 7 7 6 6 6 6 5 5 5 5 5 5 6 6 6 5 5 5 5 5 5 4 4
90 90 85 83 86 85 83 85 82 78 81 86 85 84 81 79 78 78 78 80 84 86 89 91 85 67 48 41 43 43 43 44 42 43 47 49 48 46 43 41 40 40 39 39 38 35 32 28 21 15 13 13 14 15 15 14 14 13 11 11 10 9 8 7 7 6 6 6 6 5 5 5 5 5 5 5 6 5 5 5 5 5 5 5 4 4
91 93 89 85 88 89 86 86 86 82 81 83 84 84 84 81 80 81 81 81 84 88 89 91 92 81 59 44 42 43 43 44 43 42 44 47 48 46 44 42 40 40 39 39 39 36 34 31 24 17 14 13 14 15 15 14 14 13 12 11 10 9 8 7 7 6 6 6 6 6 5 5 5 5 5 5 5 5 5 5 5 5 5 5 4 4
88 92 91 85 85 87 86 86 89 87 84 82 83 84 85 84 83 84 83 83 85 89 90 91 94 92 76 54 43 43 43 43 43 42 42 44 46 45 44 42 41 41 40 39 39 37 35 32 27 19 14 13 14 15 15 14 14 13 12 11 11 9 8 7 7 7 6 6 6 6 5 5 5 5 5 5 5 5 5 5 5 6 6 5 4 4
86 88 91 87 84 86 87 87 89 90 88 85 85 86 86 86 85 85 84 84 84 87 90 91 93 97 90 69 49 42 43 43 43 43 42 43 44 43 42 42 41 40 40 39 38 37 35 34 30 22 15 13 14 15 15 15 14 13 12 11 11 10 8 7 7 7 7 6 6 6 6 5 5 5 5 5 5 5 5 5 5 6 6 6 5 4
85 84 87 89 89 89 90 90 92 94 92 88 86 87 87 87 87 85 84 83 83 85 89 92 92 96 97 84 61 45 42 43 42 42 43 43 44 42 40 40 40 39 39 39 38 37 35 35 32 26 18 14 14 15 15 15 14 13 13 12 11 10 9 7 7 7 7 7 6 6 6 6 5 5 5 5 5 5 5 5 6 6 6 6 6 5
86 84 85 87 89 91 92 92 93 95 96 92 89 88 88 88 87 85 83 82 82 84 87 91 92 95 99 95 75 53 43 43 43 42 42 42 43 43 41 39 39 39 38 38 39 38 36 35 34 29 21 15 14 15 16 15 15 14 13 12 11 10 9 8 7 7 7 7 7 6 6 6 5 5 5 5 5 5 5 5 6 6 6 6 6 5
91 90 89 89 90 92 93 92 90 91 94 95 91 89 90 90 88 86 85 83 83 84 86 89 94 95 98 99 88 64 46 43 43 42 41 41 42 43 42 39 38 38 37 38 39 39 36 35 35 32 25 17 14 15 16 16 15 14 13 12 12 11 9 8 7 7 7 7 6 6 6 6 6 5 5 5 5 5 5 5 5 6 7 7 6 6
96 94 93 93 93 92 92 92 89 86 89 94 94 93 95 96 92 89 87 86 84 85 86 89 93 95 96 100 98 77 53 43 43 42 41 40 41 41 42 40 38 37 37 37 38 39 37 35 35 34 28 20 15 15 16 16 15 14 13 12 12 11 9 8 8 7 7 7 7 7 6 6 6 6 5 6 6 5 5 5 4 5 6 7 7 7
Wind_Speed
74 75 76 77 77 78 79 80 82 82 83 85 86 88 89 89 90 92 93 93 93 94 95 95 97 97 97 97 98 98 99 100 102 104 106 108 109 110 111 112 113 113 113 113 114 114 115 115 116 116 116 116 117 117 117 117 118 118 119 119 119 119 120 120 120 120 120 119 119 118 118 117 117 116 116 116 116 116 115 114 114 113 113 112 111 110
75 77 78 79 80 81 82 83 84 84 85 87 88 90 91 91 93 94 95 96 96 96 97 97 98 98 98 98 98 98 99 101 102 104 106 108 109 110 111 112 112 112 112 113 113 113 114 114 114 115 115 116 116 117 117 118 118 119 119 120 120 121 121 121 121 121 121 121 121 120 120 120 119 119 118 118 118 118 117 117 116 116 115 115 114 113
77 78 80 81 82 83 84 86 86 87 87 88 89 90 91 91 92 93 95 96 96 96 97 98 98 98 98 99 99 99 100 101 103 104 105 107 109 109 110 110 110 111 111 111 112 112 113 114 114 115 115 116 117 117 118 118 119 120 120 120 121 121 122 122 122 122 122 122 122 122 122 121 121 121 120 120 120 120 120 119 119 119 118 118 117 116
78 79 80 81 82 83 84 85 86 86 86 87 88 88 89 90 90 91 93 94 94 95 96 97 97 97 97 98 99 99 100 101 102 104 105 107 108 108 108 108 109 110 110 111 111 112 113 113 114 115 115 116 117 117 118 119 119 120 120 121 121 121 122 122 122 122 122 122 122 122 122 122 122 122 122 121 121 121 121 121 121 121 121 120 120 119
76 76 77 78 78 79 80 81 82 83 83 84 85 86 87 88 88 89 91 92 93 94 96 97 96 96 97 97 98 99 100 100 102 103 105 106 107 107 107 107 108 108 109 109 110 110 111 112 112 113 114 114 115 116 116 117 118 118 119 119 120 120 120 121 121 121 121 122 122 122 122 122 122 122 122 122 122 122 122 122 122 122 122 122 121 121
72 73 73 74 74 75 76 77 78 80 81 81 82 83 84 85 86 87 88 90 91 92 93 95 95 94 94 94 95 96 97 98 100 101 102 103 103 103 104 104 105 106 106 107 107 108 109 109 110 110 111 112 113 113 114 115 116 116 117 117 118 118 119 119 119 120 120 120 120 121 121 121 121 121 121 121 121 121 121 121 121 121 121 121 121 121
68 69 69 70 70 71 71 72 73 74 76 77 78 78 79 80 81 82 84 85 86 88 89 91 92 91 90 90 91 92 93 95 97 98 99 100 101 101 101 102 103 104 105 105 106 107 107 108 109 109 110 111 112 112 113 114 115 115 116 116 117 117 118 118 119 119 120 120 120 120 120 121 121 121 121 121 121 121 121 121 122 122 121 121 121 121
62 63 63 64 65 66 67 67 68 69 70 72 73 74 75 76 78 79 80 82 83 85 87 88 90 90 89 89 90 91 92 94 95 97 99 100 101 101 102 102 103 104 105 106 106 107 108 109 109 110 111 111 112 113 114 114 115 116 116 117 117 118 118 119 119 120 120 120 121 121 121 121 122 122 122 122 122 122 122 122 122 123 123 123 122 122
58 59 60 62 63 64 65 66 67 68 69 71 72 74 75 76 78 79 81 82 84 86 87 89 91 91 91 92 93 93 93 94 96 98 100 102 103 103 104 105 106 106 107 107 108 109 110 110 111 112 113 114 114 115 116 116 117 117 118 119 119 119 120 121 121 121 122 122 122 123 123 123 123 123 124 124 124 124 124 124 124 124 124 124 124 124
58 59 61 62 63 65 66 67 68 69 70 72 73 75 76 77 79 80 82 84 85 86 88 90 91 92 92 92 94 94 94 94 95 96 98 100 101 102 103 104 105 106 106 107 108 109 110 111 111 112 113 114 115 116 117 118 118 119 119 120 121 121 122 123 123 124 124 124 125 125 125 126 126 126 126 127 127 126 126 126 126 127 127 127 126 126
58 59 60 61 62 64 65 66 67 68 69 70 72 73 74 76 77 78 80 81 83 84 85 87 89 90 90 90 90 91 91 91 91 92 93 94 95 97 98 99 100 101 103 103 104 105 107 108 109 110 111 111 113 114 115 116 117 118 118 119 120 121 122 123 124 124 125 126 126 126 127 127 128 128 129 129 129 129 129 130 130 130 130 130 130 130
55 56 57 58 59 60 61 62 63 64 65 66 67 69 70 71 73 74 75 76 78 79 80 82 83 85 85 86 86 86 87 87 87 86 87 87 88 90 91 92 94 95 96 98 99 100 102 104 105 106 107 108 109 110 112 113 114 115 116 116 117 118 119 120 122 122 123 124 125 125 126 127 127 128 129 130 130 131 131 131 131 132 132 132 132 133
52 53 53 54 55 56 56 57 58 58 59 60 61 63 64 65 67 68 69 71 72 74 75 77 78 79 81 82 83 83 84 84 84 83 83 83 84 85 86 87 88 90 91 92 93 95 97 98 99 100 102 103 105 106 108 109 111 113 113 114 114 115 116 117 118 119 120 121 122 123 123 124 125 126 127 128 129 129 130 130 131 131 132 132 133 133
49 50 50 51 51 52 53 53 54 55 55 56 57 58 59 61 62 63 63 65 67 69 72 73 73 74 76 78 79 80 80 80 80 80 80 80 80 80 81 82 83 85 86 88 89 91 92 93 95 96 97 98 100 101 103 105 107 109 110 111 111 112 113 114 116 117 117 118 119 120 121 121 122 123 124 125 126 127 128 128 129 129 130 130 131 132
47 47 48 48 49 49 50 50 51 51 52 52 53 54 55 56 57 58 59 59 60 63 66 68 69 69 71 73 74 74 75 75 76 75 75 75 75 75 76 77 78 79 81 82 83 85 87 89 91 92 94 96 97 98 99 100 102 104 105 106 107 108 109 110 112 113 114 115 116 117 118 119 120 121 122 122 124 125 126 126 127 128 128 129 129 130
46 46 46 47 47 47 48 48 49 49 49 49 50 50 51 52 53 55 56 56 57 59 62 65 65 66 68 71 72 73 73 75 76 76 76 76 76 76 77 77 77 78 79 79 79 80 81 83 84 86 89 91 93 94 95 97 98 99 101 101 102 103 104 105 106 108 109 110 112 113 114 115 116 117 118 119 120 122 123 124 125 125 126 127 128 128
46 46 47 47 47 48 48 48 48 49 50 50 51 51 51 52 53 54 56 57 58 59 61 65 65 65 67 70 72 73 74 75 77 78 79 79 79 79 79 79 79 80 81 81 80 79 79 79 80 81 83 84 86 88 89 92 93 95 96 97 98 99 100 101 102 103 104 105 107 108 109 110 111 112 113 115 116 117 118 119 120 122 123 124 125 126
47 47 47 47 47 47 48 48 48 49 49 50 50 51 51 52 52 53 55 56 58 57 59 63 66 65 65 67 69 70 71 72 74 74 75 76 76 77 78 78 79 80 81 82 82 81 81 80 80 80 81 81 81 82 84 85 86 88 89 91 92 93 95 96 97 98 100 101 102 103 105 106 107 108 109 110 112 113 114 115 116 117 118 119 121 122
46 46 46 47 47 47 47 48 48 47 48 48 48 48 49 50 51 52 53 55 56 55 54 58 63 63 62 63 65 65 66 67 67 68 69 70 71 72 72 73 74 75 77 78 79 79 80 80 80 81 81 81 81 82 82 82 83 83 85 86 87 88 89 91 92 93 95 96 97 98 99 101 102 103 105 106 107 108 110 111 112 113 114 115 116 117
45 45 45 45 45 45 45 46 47 47 47 47 48 48 48 49 49 50 52 54 55 55 52 53 59 61 59 60 61 61 61 62 62 63 64 64 66 67 68 68 69 70 70 71 72 73 73 74 75 76 77 78 79 80 81 81 81 82 83 83 84 86 87 88 89 90 92 93 94 95 97 98 99 100 101 102 103 104 106 107 108 109 110 111 113 114
44 44 44 43 44 44 45 45 46 47 47 46 47 48 48 48 48 49 51 53 55 55 52 51 55 57 57 56 57 57 57 57 58 59 60 61 63 64 65 66 67 68 68 69 69 69 69 70 70 70 71 72 73 75 76 77 77 78 79 80 81 83 84 85 87 88 90 91 92 94 95 96 98 99 100 101 102 102 103 104 105 106 107 108 109 110
45 46 46 46 45 46 46 46 46 47 48 46 45 46 47 47 47 47 48 51 54 55 52 51 53 54 54 54 54 54 55 55 57 58 59 61 62 64 64 64 65 66 67 68 69 69 70 70 69 69 69 69 70 71 72 72 73 74 75 76 78 79 81 82 84 85 87 88 90 91 92 94 95 96 97 99 100 101 102 103 103 104 105 105 106 107
48 48 48 48 48 47 47 47 46 46 48 49 47 47 47 46 46 46 47 50 53 55 53 52 54 55 53 53 53 54 55 56 57 59 59 60 62 63 64 64 63 64 64 65 67 67 68 69 69 69 69 69 69 70 70 70 71 72 73 74 76 77 79 81 82 84 85 86 88 89 90 91 92 93 94 95 96 97 98 99 101 102 102 103 104 105
50 51 51 51 51 51 50 50 49 49 50 51 50 49 48 47 47 47 48 49 51 53 52 51 53 55 52 52 52 53 55 56 56 58 58 59 60 62 63 63 63 63 63 64 65 66 67 67 68 68 69 69 69 69 69 69 70 71 73 74 76 78 80 81 83 84 85 86 87 88 89 90 90 91 91 92 93 94 95 96 97 98 99 100 101 102
53 54 54 55 55 55 55 55 54 53 53 53 52 51 50 49 48 48 48 49 50 53 53 50 51 55 54 53 54 54 55 56 57 58 58 58 59 61 62 63 63 63 63 63 64 65 66 66 67 67 68 68 68 68 68 68 70 71 73 74 76 78 80 82 83 84 85 86 87 87 88 88 89 89 90 90 90 91 92 92 93 94 95 95 96 97
58 58 59 60 60 60 59 59 59 58 57 57 56 55 54 52 50 49 49 51 51 53 55 53 52 55 58 58 59 59 59 60 60 61 61 61 62 62 63 64 64 64 63 63 63 64 64 65 66 66 67 67 67 67 67 68 69 71 73 74 76 78 79 81 82 82 83 84 85 85 86 86 87 87 87 87 88 88 89 89 90 91 91 92 93 94
61 62 63 65 66 66 66 66 66 65 64 63 62 61 59 57 55 52 52 54 54 54 56 58 56 56 59 61 62 63 63 63 64 64 64 64 65 66 67 67 67 67 66 65 65 64 64 64 65 65 65 65 66 66 67 68 69 71 73 74 76 77 78 79 79 80 80 81 81 82 82 83 83 84 84 84 85 85 86 86 87 88 88 89 89 90
64 65 67 68 69 70 71 71 71 71 71 70 68 67 65 63 60 57 55 56 56 55 56 59 60 59 59 61 63 64 64 65 65 66 66 66 67 68 69 70 70 70 69 68 67 67 66 66 65 65 65 65 65 65 66 68 70 72 73 74 76 76 77 77 77 77 77 78 78 78 79 80 80 81 81 81 82 83 83 84 84 85 85 85 86 86
64 66 68 70 71 73 74 75 76 76 75 75 73 71 70 68 66 62 59 58 58 58 58 59 61 61 60 61 62 63 64 65 66 68 68 68 68 69 69 70 70 71 70 70 69 69 68 67 66 66 65 65 65 66 67 69 71 72 73 74 75 75 75 75 74 74 75 75 75 76 76 77 78 78 78 79 79 80 80 81 82 82 82 83 83 83
64 66 68 69 71 73 74 76 77 78 78 78 77 75 74 72 70 66 62 60 60 61 61 60 61 62 62 62 63 63 65 65 67 68 69 68 68 68 69 70 70 71 71 70 69 69 68 68 67 67 67 66 67 67 68 69 71 72 73 74 74 73 73 72 72 72 73 73 73 74 75 75 76 76 77 77 77 78 78 79 79 80 80 81 81 81
63 65 67 69 70 72 73 75 76 78 79 79 80 79 77 76 74 70 66 64 63 62 62 61 61 62 62 63 64 65 65 66 67 68 69 69 69 69 70 70 71 71 71 70 69 69 68 68 68 67 67 67 67 67 68 69 71 72 72 73 73 72 71 71 71 71 71 71 72 72 73 74 74 75 75 75 76 76 77 77 77 78 78 79 79 78
63 65 66 68 70 71 73 74 75 77 79 80 81 81 80 79 79 76 72 69 66 64 63 63 63 63 64 64 66 67 67 67 67 69 70 71 71 71 71 71 72 71 71 71 70 69 69 69 68 68 67 67 67 67 68 70 71 71 72 72 71 70 70 69 70 70 70 71 71 72 72 73 73 73 73 74 74 74 75 75 76 76 76 76 76 76
63 64 66 67 70 71 73 74 76 77 78 80 81 82 82 82 82 81 77 73 70 68 66 65 65 66 67 67 68 70 71 70 70 70 71 71 72 72 72 72 72 73 73 72 71 70 69 69 68 68 68 67 67 68 69 70 71 71 71 71 70 69 69 69 69 69 70 70 71 71 72 72 72 72 72 72 72 72 73 73 73 73 74 74 74 73
63 64 65 67 68 71 73 74 76 78 78 80 81 83 84 84 85 84 82 77 75 73 71 70 69 69 69 70 70 71 73 73 71 72 72 73 73 73 74 74 75 75 75 74 73 72 70 69 69 69 68 68 68 69 70 71 72 71 71 70 70 69 69 69 69 69 70 70 70 70 71 71 71 71 70 70 70 70 70 71 71 71 71 71 71 71
63 64 65 67 68 70 72 74 76 77 79 80 82 84 85 85 86 86 86 83 79 77 75 73 72 72 71 71 71 71 73 74 74 73 74 75 75 75 75 76 76 76 76 76 75 74 72 71 71 71 70 69 69 70 71 72 72 72 71 70 70 69 69 69 70 70 70 69 69 69 69 69 69 69 68 68 68 68 68 68 68 68 68 69 68 67
63 64 65 67 68 70 72 74 75 77 79 81 83 84 85 86 86 87 88 87 83 80 78 76 74 74 73 72 72 71 73 75 75 75 75 75 75 76 76 76 77 77 77 77 77 76 74 73 73 72 71 70 70 71 72 73 73 73 72 71 70 69 69 70 70 70 70 69 68 68 68 68 68 67 66 66 66 66 66 66 66 66 65 66 65 64
63 64 65 67 68 69 71 73 75 77 79 80 81 83 84 86 87 87 88 89 87 83 80 78 77 75 75 74 73 73 73 75 75 75 75 75 75 75 75 76 76 77 77 78 77 77 75 74 73 73 72 71 71 72 73 73 73 73 73 71 70 70 70 70 70 70 69 69 68 67 67 67 66 66 65 65 65 65 64 64 64 64 64 64 63 62
64 65 66 67 68 70 71 73 74 76 77 79 81 82 84 86 87 88 89 90 89 87 84 81 79 78 77 76 76 75 74 74 74 74 74 74 73 73 74 75 75 76 76 77 77 77 76 75 74 74 73 72 72 73 74 74 74 74 73 72 71 70 70 70 70 70 69 69 68 67 66 66 65 65 64 64 64 63 63 63 63 63 63 63 62 61
64 65 66 67 69 71 73 75 77 78 79 81 82 84 85 87 88 89 90 91 91 90 87 84 82 81 80 79 79 78 76 74 74 74 73 73 73 73 73 74 75 75 76 77 78 78 78 77 76 75 74 74 74 74 75 75 75 75 75 73 72 71 70 70 70 70 69 68 68 67 66 65 64 63 63 63 63 62 62 62 62 62 62 62 61 59
64 65 66 68 70 71 73 75 78 80 81 82 83 84 86 87 89 90 91 93 93 93 91 88 85 84 83 82 81 81 80 78 77 76 76 75 74 74 74 75 76 77 78 79 80 80 80 79 78 77 76 75 75 75 76 77 77 76 76 74 73 72 71 71 70 70 70 69 67 66 65 64 63 62 61 61 61 61 61 61 61 62 62 61 60 58
63 65 66 67 69 71 72 74 77 80 81 82 83 85 87 88 90 92 94 95 96 97 95 93 90 88 86 85 84 83 83 83 81 80 79 78 78 77 77 78 78 79 80 81 82 82 82 81 80 78 77 77 76 76 77 78 78 78 77 76 74 73 72 72 71 71 70 69 68 66 64 63 62 61 60 60 60 60 60 60 60 60 61 61 59 57
63 65 66 68 69 71 72 74 75 78 80 82 83 85 87 89 90 92 95 97 99 100 100 98 95 92 90 89 87 86 86 86 85 84 83 82 81 80 80 80 81 81 82 83 83 83 83 83 82 80 79 78 77 77 78 78 79 79 78 77 75 74 73 72 72 71 70 69 68 66 64 62 61 60 60 59 59 59 60 59 58 59 60 60 58 57
65 66 67 69 70 72 73 75 76 78 80 83 84 86 87 89 91 93 96 98 100 102 103 102 100 97 94 92 91 90 89 88 87 86 86 85 84 83 82 82 82 83 83 84 84 85 84 84 83 82 81 79 78 78 78 79 80 79 78 77 76 75 74 73 72 71 70 69 68 66 64 62 61 60 59 58 58 58 59 58 57 57 58 58 57 55
67 68 69 71 73 74 75 77 79 80 81 83 85 87 89 91 93 95 97 99 101 103 104 105 104 101 98 96 94 93 91 90 89 88 87 87 86 85 84 83 83 84 84 85 86 86 86 86 85 84 82 81 80 79 79 80 80 80 79 78 77 76 75 73 72 71 70 69 68 66 64 62 61 60 59 58 57 57 57 57 56 56 56 56 55 54
67 69 71 72 74 76 77 78 80 82 83 84 85 87 89 92 94 96 97 99 101 103 105 106 106 105 102 99 97 96 94 92 91 90 89 88 88 86 85 85 85 85 86 86 87 87 87 87 86 85 84 82 81 80 80 80 81 81 80 79 78 77 76 74 73 72 71 69 67 66 64 63 61 60 58 57 56 55 55 55 55 54 55 55 54 53
67 69 71 72 73 74 76 78 80 82 83 84 85 87 88 91 93 95 97 99 100 103 105 107 108 107 105 102 100 98 96 94 93 92 91 90 90 89 88 87 86 86 87 87 88 88 88 88 88 87 85 84 82 81 81 81 82 82 81 80 79 78 77 75 74 73 71 69 68 66 65 63 62 60 59 57 55 53 53 52 52 53 54 55 54 52
67 68 70 72 73 74 76 78 80 81 83 84 86 87 88 90 92 94 96 98 100 102 104 107 108 109 108 106 103 101 99 97 95 94 92 92 91 91 89 88 88 87 87 88 88 89 89 89 89 88 87 85 84 83 82 83 83 83 82 81 80 79 78 76 75 74 72 70 68 67 65 64 63 61 60 57 55 52 51 50 50 50 52 55 55 54
69 70 72 74 75 76 77 78 80 82 84 85 86 88 89 90 92 94 96 98 100 102 104 106 109 110 110 109 106 103 101 99 97 96 94 93 92 92 91 90 89 88 88 88 89 90 89 89 90 89 88 87 85 84 83 84 84 84 83 82 81 80 79 78 76 74 73 71 69 67 66 64 63 62 60 59 56 53 50 49 49 49 49 51 54 55
73 75 75 77 78 79 79 80 80 81 84 86 87 88 89 91 92 94 96 98 100 102 104 106 108 110 111 111 109 106 103 101 99 97 96 94 93 93 92 91 90 90 89 89 90 90 90 90 90 90 89 88 87 85 85 84 85 85 84 83 82 81 80 79 77 75 73 71 69 67 66 65 63 61 60 59 58 54 50 46 46 48 49 49 50 52
77 78 79 80 81 82 83 84 84 83 84 86 88 89 90 92 93 95 97 99 100 102 104 106 109 111 112 112 111 108 106 103 101 99 97 96 95 94 94 93 92 91 90 90 90 91 91 91 91 91 91 89 88 86 85 85 85 85 84 83 82 81 80 79 78 76 74 72 69 68 67 65 63 61 60 59 58 57 53 48 43 43 46 48 49 49
80 81 82 83 84 86 87 88 89 88 88 89 90 90 91 93 94 96 98 99 101 103 105 107 109 111 113 114 114 111 108 105 103 101 99 97 96 96 95 94 93 93 92 91 91 92 92 92 92 92 92 90 89 87 86 85 85 85 84 83 82 81 80 79 78 76 75 72 70 68 67 66 64 62 60 59 58 57 56 53 47 42 39 42 46 48
Wind_Direction
279 279 280 280 280 280 279 279 279 279 279 279 279 279 279 279 279 279 278 278 277 277 276 276 276 276 276 276 276 275 275 275 275 275 275 275 275 275 275 275 275 275 275 275 275 275 276 276 276 276 276 276 276 276 276 276 276 276 276 276 276 276 276 276 276 276 276 276 276 275 275 275 274 274 274 274 274 273 273 273 272 272 271 271 271 270
281 281 281 281 281 281 281 281 281 280 280 280 280 279 279 279 279 279 279 279 279 279 278 278 277 277 277 277 277 277 276 276 275 275 275 275 275 274 274 275 275 275 275 276 276 276 276 275 275 275 275 275 275 275 275 275 275 275 275 275 275 275 275 275 275 275 275 275 275 275 275 275 274 274 274 274 273 273 273 273 272 272 271 271 271 270
281 281 281 281 281 281 281 281 281 281 281 280 280 279 279 279 279 279 278 278 279 278 278 278 278 278 278 278 278 277 277 276 276 276 275 275 274 274 274 275 275 275 275 275 275 275 275 275 275 275 275 275 275 275 275 275 275 275 275 275 275 275 275 275 275 275 275 275 275 274 274 274 274 274 274 273 273 273 273 272 272 272 271 271 270 270
281 281 281 281 281 281 281 281 281 281 280 280 280 280 279 279 279 278 278 278 278 278 278 278 278 278 278 277 277 277 277 276 276 276 275 275 275 275 275 275 275 275 275 275 275 275 275 275 275 274 274 274 274 274 274 274 274 274 274 274 274 274 274 274 274 274 274 274 274 274 274 274 274 273 273 273 273 272 272 272 272 272 271 271 271 270
282 282 281 281 281 281 280 280 280 280 280 279 279 279 279 279 279 279 278 278 278 278 278 278 278 278 278 278 277 277 277 277 276 276 276 276 276 276 276 276 276 276 276 275 275 275 275 275 275 274 274 274 274 274 274 274 274 274 274 274 274 274 274 274 274 274 274 274 274 274 274 273 273 273 273 273 273 272 272 272 272 272 272 271 271 271
283 283 283 282 282 281 281 281 280 280 280 280 279 279 279 279 279 279 278 278 278 278 278 278 278 278 278 278 278 278 278 277 277 277 277 277 277 277 277 277 277 277 276 276 276 276 276 275 275 275 275 275 275 274 274 274 274 274 274 274 274 274 274 274 274 274 274 274 274 274 273 273 273 273 273 273 272 272 272 272 272 271 271 271 271 270
285 285 285 284 283 283 282 282 281 281 281 281 281 280 280 280 280 280 280 280 280 279 279 279 279 279 279 279 279 279 278 278 278 278 278 278 278 278 278 278 277 277 277 277 277 277 276 276 276 276 275 275 275 275 275 275 274 274 274 274 274 274 274 274 274 274 274 274 274 274 273 273 273 273 273 273 272 272 272 272 272 271 271 271 270 270
287 286 286 286 285 285 284 283 283 282 282 282 282 282 282 282 282 281 281 281 281 281 281 281 281 281 281 280 280 279 279 280 280 280 280 280 280 280 279 279 279 278 278 278 278 278 277 277 277 277 276 276 276 275 275 275 275 275 275 274 274 274 274 274 274 274 274 274 274 274 273 273 273 273 273 273 273 272 272 272 272 271 271 271 271 270
290 289 288 288 287 287 286 286 285 285 285 284 284 284 284 284 284 283 283 283 282 282 282 283 283 283 282 282 281 281 281 281 281 281 281 281 281 281 281 280 280 280 279 279 279 278 278 278 277 277 277 276 276 276 276 275 275 275 274 274 274 274 274 274 274 274 274 274 274 274 274 273 273 273 273 273 273 273 273 272 272 272 272 271 271 271
293 292 291 291 290 289 289 288 288 287 287 286 286 285 285 284 284 284 284 284 284 284 284 284 283 283 283 283 283 282 282 281 281 281 281 281 281 281 281 281 281 280 280 279 279 279 278 278 277 277 277 276 276 276 276 275 275 275 274 274 274 274 274 274 274 274 274 273 273 273 273 273 273 273 273 273 273 273 273 272 272 272 272 272 271 271
295 294 292 291 291 290 289 289 288 288 287 287 286 286 286 285 285 285 285 285 285 285 285 285 285 285 285 285 284 284 284 283 282 282 282 282 282 282 282 281 281 281 280 280 280 279 279 278 278 278 277 277 277 276 276 276 276 275 275 275 274 274 274 274 274 274 274 273 273 273 273 273 273 273 273 273 273 273 273 272 272 272 272 272 272 271
297 296 295 294 293 292 291 291 290 290 289 288 288 288 288 287 287 287 287 286 286 286 286 286 287 287 287 287 287 286 286 286 285 285 284 283 283 283 282 282 282 281 281 281 280 280 279 279 279 278 278 278 278 277 277 277 276 276 276 275 275 275 275 274 274 274 274 274 274 273 273 273 273 273 273 273 273 273 273 272 272 272 272 272 272 271
302 301 300 299 298 296 296 294 293 293 292 291 291 291 290 290 290 290 291 291 291 291 290 290 290 291 291 291 290 290 290 289 289 289 288 287 286 286 285 285 284 283 283 282 281 281 280 280 279 279 278 278 277 277 277 277 276 276 276 276 276 275 275 275 274 274 274 274 274 274 273 273 273 273 273 273 273 273 272 272 272 272 272 272 272 271
306 305 304 303 302 301 301 300 299 298 297 297 296 296 296 295 294 294 294 294 294 293 293 293 292 292 292 292 292 292 292 292 291 291 290 289 288 287 287 286 285 284 284 283 283 282 282 281 281 280 279 278 277 277 276 276 276 276 276 276 275 275 275 275 275 275 275 274 274 274 274 274 273 273 273 273 273 273 272 272 272 272 272 272 271 271
311 310 309 308 307 306 306 305 304 302 301 299 299 298 297 296 295 294 293 292 292 293 293 293 294 294 295 295 295 295 295 295 295 295 294 293 292 291 290 289 288 286 285 284 283 283 282 282 282 282 281 281 280 279 278 278 277 277 276 276 276 276 276 275 275 275 275 275 275 275 274 274 274 274 273 273 273 273 273 272 272 272 272 271 271 271
318 317 315 314 313 312 310 309 307 306 304 303 302 301 299 299 298 298 298 297 297 297 298 297 298 299 300 300 300 301 301 302 301 301 300 300 299 298 296 295 294 292 291 289 287 286 285 284 283 283 282 281 281 281 280 280 279 279 279 278 278 278 277 277 276 276 276 276 275 275 275 274 274 274 274 273 273 273 272 272 272 272 272 271 271 271
324 323 322 320 319 317 316 315 314 313 311 310 309 308 307 307 306 306 305 304 304 303 303 302 303 304 303 302 302 303 303 303 302 302 302 301 301 300 300 299 298 297 296 295 293 292 290 289 287 286 284 283 282 281 281 280 280 280 280 280 279 279 279 278 278 278 277 277 277 276 276 276 275 275 274 274 273 273 273 272 272 272 272 271 271 271
329 328 326 325 323 322 321 320 318 317 315 314 314 313 312 311 310 309 307 307 306 306 306 304 304 305 303 301 302 302 302 301 301 301 301 301 301 301 301 300 300 299 298 298 297 296 295 294 292 291 289 288 286 285 283 282 282 281 281 280 280 280 279 279 279 278 278 278 277 277 277 277 277 276 276 275 275 275 274 274 273 273 272 272 271 271
333 332 331 330 329 327 325 323 322 320 318 317 316 316 315 314 313 312 310 309 307 307 307 305 305 305 304 302 302 302 302 302 302 302 301 301 301 300 300 299 299 298 297 297 297 297 296 296 295 294 293 292 291 290 288 287 286 285 284 284 283 282 282 281 281 280 280 279 279 278 278 278 277 277 276 276 276 275 275 275 274 274 274 273 273 272
339 338 337 336 334 332 331 329 327 326 325 324 322 321 320 319 318 316 313 311 309 309 310 308 306 305 305 305 304 305 304 304 304 304 303 303 303 302 301 301 299 298 297 296 295 295 294 293 293 292 292 292 291 291 290 289 289 288 288 287 286 285 285 284 284 283 283 282 282 281 281 280 279 279 278 277 277 276 276 275 275 274 274 274 273 273
345 345 344 343 341 339 338 336 334 331 330 330 328 326 324 322 320 318 316 314 312 312 314 312 308 307 308 309 308 308 308 307 307 306 307 307 306 305 304 304 304 303 303 301 300 299 298 297 295 294 293 292 291 290 290 290 289 289 288 287 287 286 286 285 284 284 283 283 282 282 281 281 281 280 280 279 279 278 277 276 276 275 274 274 273 273
353 352 351 350 349 347 346 343 341 338 334 333 331 329 327 326 325 323 322 319 317 317 318 317 314 313 315 315 315 314 313 313 312 312 312 312 311 310 310 311 311 311 310 308 307 306 304 303 301 300 298 297 295 294 293 292 292 291 290 289 288 287 286 286 285 284 284 283 283 282 281 281 280 280 279 279 278 278 277 277 276 276 275 274 274 273
1 0 359 357 355 354 352 350 347 344 340 337 337 335 333 331 330 329 328 326 323 322 324 325 322 320 321 321 320 319 319 318 318 317 317 317 317 316 316 315 315 313 311 310 309 308 307 306 305 304 303 301 300 299 298 297 296 295 294 292 291 290 290 289 288 287 287 286 285 284 283 282 281 281 280 279 278 277 277 276 276 275 275 275 274 274
8 7 6 4 2 360 358 356 354 351 348 345 343 341 339 337 336 336 335 332 329 327 330 332 328 324 325 325 324 323 322 322 322 321 321 321 321 320 319 317 316 315 313 312 311 310 310 309 308 307 306 304 303 302 301 300 299 298 297 296 295 294 293 292 292 291 290 289 288 287 286 285 284 283 282 281 280 279 278 277 277 276 275 275 274 274
12 12 10 9 8 6 4 2 359 357 355 352 349 346 345 343 342 343 340 336 334 334 333 335 333 329 329 330 329 328 327 326 326 325 326 325 324 322 321 320 319 318 317 316 315 314 313 312 311 309 308 307 305 305 304 302 301 300 299 298 297 296 295 294 293 293 292 291 290 289 288 287 286 285 284 283 282 281 281 280 279 278 277 277 276 276
13 13 12 11 11 9 8 7 4 2 360 357 354 352 350 348 347 348 346 341 342 341 338 339 340 337 335 335 334 333 333 332 331 330 330 329 328 327 326 324 323 322 321 320 319 317 315 314 313 311 310 309 308 307 306 304 303 302 300 299 298 297 297 296 295 294 293 292 291 290 289 288 288 287 286 285 284 284 283 282 281 281 280 279 279 278
13 13 13 12 12 11 10 9 8 6 4 2 360 356 354 352 351 352 351 347 348 347 343 342 344 343 340 338 337 337 336 336 335 333 334 334 333 332 331 329 328 327 326 324 322 320 318 317 315 314 312 310 309 308 307 305 304 303 302 301 300 300 299 298 297 296 295 294 293 292 291 290 289 288 288 287 286 285 285 284 283 283 282 282 281 280
13 12 12 12 12 11 11 10 9 8 7 5 3 360 357 354 353 355 355 351 350 350 348 346 346 345 344 341 340 339 338 338 337 336 336 336 336 335 334 333 332 331 329 328 326 324 322 320 318 316 314 312 311 310 308 307 307 306 305 304 303 302 302 300 299 298 297 296 295 294 293 292 291 290 289 289 288 287 287 286 285 285 284 283 283 282
13 12 12 12 11 11 11 10 10 9 8 7 6 3 360 357 355 356 356 353 351 352 352 350 348 346 345 343 342 341 340 340 339 338 338 338 337 337 336 335 334 333 332 330 328 326 324 323 321 319 317 315 314 313 312 311 310 309 308 307 306 305 304 303 302 300 299 298 297 296 295 294 293 292 291 291 290 289 288 288 287 286 286 285 284 283
12 11 11 11 11 10 10 10 10 9 9 8 7 5 3 359 357 357 357 354 354 353 353 352 349 347 346 345 343 342 342 342 341 340 339 339 338 338 337 336 336 335 333 332 330 328 326 325 323 321 320 318 317 316 315 314 313 312 311 310 309 308 307 305 304 303 301 300 299 298 297 296 295 294 294 293 292 291 290 289 288 288 287 286 285 284
10 10 9 9 10 10 10 10 10 9 8 8 8 7 5 2 358 358 359 357 355 354 353 351 350 348 348 346 345 344 343 344 343 341 340 340 339 339 338 338 337 336 335 333 331 330 328 327 326 323 322 320 319 318 316 316 315 314 314 313 312 311 309 308 307 305 304 303 302 301 300 299 298 297 296 295 295 294 293 291 290 289 288 287 287 286
9 9 9 8 8 9 9 8 9 9 8 8 8 7 6 4 0 359 0 359 356 355 353 352 350 349 349 348 347 346 345 345 344 343 341 341 341 340 340 339 338 337 336 335 333 332 331 329 327 325 323 322 320 320 319 318 318 317 317 315 314 313 312 311 310 308 307 306 305 304 302 301 300 299 299 298 297 295 294 293 292 291 290 289 289 288
7 8 8 7 6 7 7 7 7 9 8 8 8 7 7 6 2 0 1 360 357 356 354 353 352 350 350 350 349 348 346 346 346 344 343 343 342 342 341 340 339 338 338 337 336 334 333 331 329 327 325 324 323 323 322 321 321 320 319 318 317 316 315 314 313 311 310 309 307 306 305 304 302 301 301 299 298 297 295 294 293 293 292 291 290 290
6 6 7 7 6 5 6 6 6 7 7 7 7 7 7 7 5 1 0 1 359 357 355 354 353 352 351 350 350 349 347 346 347 346 344 344 343 343 342 341 341 340 339 338 337 335 334 333 331 329 328 327 326 325 324 324 323 323 322 321 320 319 318 316 315 314 312 310 309 308 306 305 304 303 302 301 299 298 297 296 295 294 293 292 292 291
5 5 5 6 6 5 5 6 5 5 6 6 6 6 7 7 6 3 1 1 0 358 357 355 354 352 351 351 350 350 348 346 347 347 346 345 344 344 343 343 342 341 340 339 338 337 336 335 333 332 330 329 328 327 327 326 326 326 325 324 323 322 320 319 317 315 314 312 311 310 308 307 306 305 304 302 301 300 298 297 296 295 294 293 292 292
3 4 4 5 5 4 4 4 4 4 5 5 5 5 5 6 6 4 2 1 1 360 358 356 355 353 352 351 350 350 349 347 347 348 347 346 345 345 344 343 342 342 341 340 339 339 338 337 335 334 332 331 330 330 329 329 328 328 327 326 325 324 322 321 319 318 316 315 314 312 311 310 309 307 306 305 303 302 301 300 298 297 296 295 294 293
0 2 3 3 4 4 3 3 4 4 4 4 4 4 4 5 6 5 3 2 2 1 359 357 356 354 353 352 351 351 350 349 348 348 347 346 346 345 345 344 343 342 342 341 340 340 339 338 336 335 334 333 332 332 331 331 330 330 329 328 327 326 324 323 321 320 318 317 316 315 314 313 311 310 309 308 306 305 304 302 301 300 299 297 296 296
358 359 1 1 2 3 2 2 2 3 3 3 3 3 3 3 4 5 4 3 2 1 0 358 357 355 354 353 352 351 351 350 348 348 347 346 346 345 345 345 344 343 342 342 341 341 340 339 338 337 336 335 334 334 333 333 332 332 331 330 329 328 326 324 323 322 321 320 319 318 317 315 314 313 312 310 309 308 307 305 304 302 301 300 299 298
355 357 358 359 360 1 1 1 1 1 2 2 2 2 2 2 3 4 4 3 3 2 1 360 358 356 355 354 353 352 351 351 349 348 347 347 346 346 346 345 345 344 343 343 342 342 342 341 339 339 338 337 336 335 335 334 334 334 333 331 330 329 328 327 325 324 323 322 321 320 319 318 317 315 314 313 311 310 308 307 305 304 302 301 300 300
353 354 356 357 358 359 0 360 359 359 0 0 0 1 1 1 1 2 3 3 3 2 2 1 359 358 356 355 355 353 352 351 351 349 349 348 347 347 347 347 346 345 345 344 344 344 343 342 341 340 340 339 338 337 337 336 336 335 334 333 332 331 330 329 327 326 325 324 323 322 321 320 319 317 316 315 313 311 310 308 306 305 303 302 302 301
352 352 354 355 356 357 358 359 359 358 358 359 359 359 360 0 0 1 2 2 3 2 2 2 1 359 357 356 355 355 354 353 352 351 350 349 348 348 348 348 348 347 347 346 345 345 345 344 342 342 341 341 339 339 338 338 337 337 336 334 333 333 332 331 330 328 327 326 325 324 323 322 321 320 318 317 314 312 310 309 308 306 305 304 304 303
352 352 353 354 355 355 356 357 358 358 357 357 358 358 358 359 359 360 1 1 2 2 2 2 1 360 358 357 356 356 355 354 354 353 351 350 350 350 350 350 349 349 348 347 346 346 346 345 343 343 342 342 341 340 340 339 339 338 337 336 335 334 334 333 331 330 329 328 327 326 325 324 323 322 320 318 316 313 312 311 309 308 306 305 305 304
353 352 353 353 353 354 354 355 356 357 357 356 357 357 358 358 359 359 360 0 1 1 1 1 1 360 359 357 356 356 356 355 355 354 353 351 351 350 350 351 350 350 349 348 347 347 347 346 344 343 343 343 342 341 341 341 340 339 338 337 336 336 335 334 333 331 330 330 329 327 326 326 325 324 322 320 317 315 314 312 311 310 308 307 306 306
353 353 353 354 353 353 354 354 354 356 357 356 356 356 356 357 358 358 359 360 0 0 1 1 1 360 359 358 357 357 356 356 355 355 354 352 351 351 351 351 351 350 349 349 348 347 347 347 345 344 344 344 343 342 342 342 341 340 340 338 338 337 337 336 334 333 332 332 330 329 328 327 327 325 323 321 319 317 316 315 313 312 310 308 308 307
354 353 353 354 353 353 353 353 353 354 355 355 355 355 356 356 357 357 358 359 359 359 360 0 0 360 359 358 357 356 356 356 355 355 355 353 352 352 351 351 351 351 350 349 348 348 348 347 346 345 345 344 344 343 343 343 342 342 341 340 339 338 338 337 336 334 334 333 332 330 329 329 328 326 324 322 321 319 318 317 316 314 311 309 309 308
356 355 354 354 354 353 352 353 352 352 353 354 354 355 355 355 356 356 357 357 358 358 359 359 360 360 359 358 357 356 356 355 355 355 355 354 353 352 352 352 352 351 351 350 349 348 348 348 347 346 345 345 345 344 344 344 343 343 342 341 340 339 339 338 337 336 335 335 333 332 331 330 329 328 326 324 323 322 321 319 318 316 313 311 310 310
357 356 354 353 353 353 353 352 352 352 352 352 353 353 354 354 355 355 356 356 357 358 358 359 359 359 359 358 357 356 355 355 355 355 355 354 353 352 352 352 352 352 351 351 350 349 349 349 348 347 346 346 345 345 344 344 344 344 343 342 341 341 340 339 338 337 337 336 335 333 333 332 331 329 327 326 325 325 324 322 319 317 315 313 312 311
357 357 355 354 353 353 352 352 352 351 351 351 352 352 353 353 354 354 355 356 356 357 357 358 358 359 359 358 357 356 355 354 354 354 354 354 353 352 352 352 352 351 351 351 350 349 349 349 349 347 347 346 346 346 345 345 345 345 344 343 343 342 341 340 339 339 338 338 336 335 334 334 333 331 329 328 327 327 326 325 322 319 317 315 313 313
358 358 358 356 355 354 353 352 352 351 350 350 350 351 351 352 353 353 354 355 355 356 357 357 357 358 358 358 357 356 355 354 354 353 353 353 353 352 352 352 351 351 351 351 350 349 349 350 349 348 347 347 347 346 346 346 346 346 345 344 343 343 342 341 340 340 339 339 338 336 336 335 334 333 331 329 328 327 328 328 325 322 319 317 315 314
358 359 358 358 357 357 355 354 353 352 351 349 349 350 350 351 351 352 353 354 354 355 356 356 357 357 357 357 357 356 355 354 353 353 353 353 352 352 351 351 351 351 351 351 351 350 350 350 350 349 348 348 347 347 346 346 346 346 346 345 344 344 343 342 341 340 340 339 339 338 337 337 336 334 333 331 330 329 328 329 328 326 322 319 317 316
356 356 357 357 357 357 356 355 354 354 353 351 350 349 350 350 350 351 352 352 353 354 355 356 356 356 356 357 357 356 355 353 353 352 352 352 352 352 351 351 351 351 351 351 351 350 350 350 350 349 349 348 348 347 347 346 346 346 346 346 345 344 344 343 342 341 341 340 340 339 338 338 337 335 334 333 332 331 330 329 329 328 326 322 319 317